Weather in Cheryomukhovo

Russia / Sverdlovsk Oblast     57°13′58″N   63°39′15″E
temp.,
°C
wind,
m/s
gust,
m/s
humid.,
%
clouds,
%
prec.,
mm/h
press.,
hPa
HPBL,
m
20 april, tue
tue2023:00−3ene23485 0.0 103443
02:00−4sse11495 0.0 103410
05:00−4wsw22495 0.0 103537
08:000wsw353684 0.0 1034388
11:00+4wsw463146 0.0 10321143
14:00+8w57285 0.0 10291650
17:00+9nw57324 0.0 10281676
20:00+5wnw22504 0.0 102720
21 april, wed
wed2123:00+3wnw35620 0.0 102881
02:00+1nw38710 0.0 1029142
05:000nw37800 0.0 1030121
08:00+4nnw34660 0.0 1031260
11:00+9nnw34524 0.0 10311062
14:00+11nnw33425 0.0 10321594
17:00+12nne22405 0.0 10321609
20:00+8ese225620 0.0 103341
22 april, thu
thu2223:00+5se38725 0.0 1035195
02:00+4sse39785 0.0 1035204
05:00+2sse37845 0.0 1036134
08:00+6s3667100 0.0 1036229
11:00+12s564067 0.0 10351213
14:00+15s6731100 0.0 10341812
17:00+15ssw5831100 0.0 10331809
20:00+11s3943100 0.0 1033250
23 april, fri
fri2323:00+8s31154100 0.0 1034290
02:00+6s3106098 0.0 1033208
05:00+6s31163100 0.0 1033240
08:00+9s41055100 0.0 1033426
11:00+12ssw5843100 0.0 10321028
14:00+13s5937100 0.0 10311949
17:00+13ssw584283 0.0 10301917
20:00+11ssw3757100 0.0 1030964
24 april, sat
sat2423:00+9s3871100 0.1 1030282
02:00+9s1272100 0.1 102848
05:00+7se2473100 0.3 1028137
08:00+7sse3783100 0.9 1027285
11:00+7sse3986100 2.1 1025475
14:00+11sse4760100 0.1 10241391
17:00+12se5750100 0.1 10221475
20:00+9sse4761100 0.1 1021491